Location: *
(37.9500°N, 27.3666°E)
Time: 05:08:44
(UTC+00:00)

Delta 2 Rocket - Pass Details

Date: 24 October 2021
Orbit: 415 x 797 km, 35.6° (Epoch: 03 December)

Event Time Altitude Azimuth Distance (km) Brightness Sun altitude
Rises 16:09:25 0° 261° (W) 2,530 9.1 -10.2°
Reaches altitude 10° 16:11:42 10° 257° (WSW) 1,599 7.3 -10.7°
Maximum altitude 16:15:15 58° 178° (S) 509 3.1 -11.4°
Enters shadow 16:17:34 18° 102° (ESE) 1,106 4.3 -11.8°
